Starlink 31727

operational
NORAD ID: 59638 Int'l Des: 2024-082 Owner: SPXS Country: US Constellation: starlink
LEOCIRCULAR

About Starlink 31727

Description loading...

Live Position

Loading 3D Globe...

Upcoming Passes

Altitude History

Altitude vs Time

uPlot chart will show altitude changes over time

Two-Line Element Set

1 59638U 24082H 25258.69118218 .00000590 00000-0 30945-4 0 9994
2 59638 43.0026 48.4946 0001478 263.7804 96.2879 15.27584757 78099
Epoch: Sep 15, 2025 • Age: 17 hours

Current Status

Altitude 484.8 km
Velocity 7.63 km/s
Sub-Earth Point 32.14°N, 60.26°W
Launch Date May 3, 2024
Age 1.3 years
Type internet

Technical Details

Classification Payload
Mass 730.00 kg
Dry Mass 700.00 kg
Total Mass 730.00 kg
Length 0.30 m
Diameter 4.10 m
Span 29.00 m
Shape Box + pan
Manufacturer SPXS
Bus Type Starlink V2M
Phase Status In Orbit
Owner/State SPXS/US

Large Constellations

Loading constellations...